Wind_Speed
35 35 36 35 35 36 37 38 39 37 36 34 34 36 36 37 38 39 40 40 41 42 42 42 43 43 44 44 45 46 46 47 48 48 49 50 51 51 52 53 53 54 54 54
36 35 36 37 37 37 37 37 38 38 37 35 35 36 37 37 38 39 40 41 41 42 42 43 43 44 44 45 46 46 46 47 47 48 49 50 50 51 52 53 53 54 54 54
36 36 38 38 37 37 37 37 37 38 37 37 37 37 37 38 39 39 40 40 41 41 42 43 43 44 44 45 45 46 46 47 47 47 48 49 49 50 51 52 53 53 53 54
36 37 38 37 36 36 36 35 36 36 36 38 38 38 39 41 41 41 41 41 41 42 42 43 43 44 44 44 45 45 45 45 46 46 47 47 48 49 50 51 52 52 53 54
37 39 39 37 37 36 37 35 35 37 38 38 38 39 39 40 41 41 42 43 43 43 43 43 43 43 44 44 44 45 45 46 46 46 46 47 48 48 49 50 52 52 52 52
38 39 40 38 37 37 38 37 36 37 38 38 38 39 38 40 41 42 43 43 43 43 43 43 43 43 43 44 44 45 45 46 46 46 46 47 48 48 49 49 51 52 52 52
39 40 41 39 39 39 39 38 37 37 37 37 38 38 39 40 41 42 42 43 43 43 43 43 43 44 44 44 45 45 46 46 46 46 46 47 47 48 48 49 50 51 52 52
40 42 41 41 40 40 40 39 38 38 38 38 39 39 40 40 40 41 41 42 43 43 44 44 45 45 45 45 45 46 46 46 47 47 47 47 48 48 48 48 49 50 51 51
41 41 41 41 41 41 41 40 39 39 39 40 40 40 40 40 40 41 42 42 43 43 43 44 45 45 45 45 46 46 47 47 47 47 47 47 47 48 48 49 49 50 51 51
42 41 42 42 42 42 41 40 40 40 40 41 41 40 40 41 41 41 42 42 43 43 43 44 44 45 45 46 47 47 47 47 47 47 47 48 48 48 49 49 50 50 51 51
42 41 41 40 41 41 41 41 41 41 41 41 41 40 41 41 40 41 41 41 41 42 42 43 44 45 46 46 47 47 47 47 47 47 47 48 48 48 49 49 49 50 50 51
41 41 41 40 39 40 40 40 41 41 41 40 41 41 41 41 41 40 40 41 41 42 42 43 44 45 46 46 46 46 46 46 46 46 46 47 47 48 48 48 49 50 50 51
40 40 39 39 39 39 40 40 40 40 41 41 41 41 41 41 40 41 41 41 42 42 42 43 43 44 44 44 44 44 43 43 44 45 45 46 46 47 47 47 48 49 49 50
39 39 39 39 40 40 41 40 40 41 41 41 42 42 42 42 42 42 42 42 42 43 42 42 42 42 43 43 42 42 42 43 43 43 44 44 45 46 46 47 47 48 48 48
40 40 40 40 41 41 41 42 42 42 42 42 42 42 42 43 43 43 43 43 43 43 42 42 42 41 42 42 42 42 42 42 43 43 43 44 44 45 45 46 46 46 46 46
39 39 40 41 41 41 42 42 42 42 42 42 42 43 43 43 43 43 43 43 43 42 42 41 41 41 41 42 42 42 42 42 43 43 44 44 44 44 44 44 44 44 44 44
38 38 39 40 41 41 41 41 41 42 42 42 43 43 43 43 43 43 43 43 43 42 42 41 42 42 42 42 42 42 42 42 43 43 43 43 43 43 43 43 42 42 42 43
37 38 39 40 40 39 39 40 40 41 41 41 41 42 42 42 42 43 43 42 42 41 41 42 42 42 42 43 43 43 43 43 43 43 42 42 42 42 41 41 41 41 41 41
38 39 39 39 39 39 39 39 39 39 40 40 40 41 42 42 42 41 41 42 42 42 42 42 42 42 42 43 43 43 43 43 42 42 42 41 41 40 40 40 40 40 40 40
38 39 39 39 39 39 38 38 38 38 39 39 40 41 41 41 41 41 41 41 42 42 42 42 42 42 42 42 42 42 42 41 40 40 40 40 41 40 40 40 40 40 40 40
38 38 38 38 38 38 38 38 38 39 39 40 40 41 41 41 41 41 41 41 42 42 42 42 43 43 42 42 41 41 40 40 39 39 39 40 40 40 40 40 40 40 40 39
38 38 38 38 38 38 39 39 39 40 40 41 41 41 41 41 42 42 42 42 42 43 43 43 42 42 42 41 40 40 40 39 39 39 39 40 39 39 39 39 39 39 39 39
39 38 38 38 38 39 39 40 41 41 41 42 42 42 42 42 42 42 42 42 43 42 42 42 42 41 41 40 40 40 39 39 39 39 39 39 39 39 39 39 39 39 39 39
38 38 38 39 39 39 40 41 42 42 42 42 42 42 42 42 42 43 43 43 42 42 41 40 40 40 39 39 39 39 39 39 38 39 39 39 39 39 39 39 39 39 39 38
38 38 39 39 40 40 41 41 42 42 41 41 42 42 42 42 42 41 41 41 40 39 39 39 38 38 38 38 38 38 38 38 38 38 38 38 38 38 38 38 38 38 37 37
38 39 39 40 40 41 41 41 41 41 41 41 40 40 40 40 40 40 39 38 37 37 36 36 36 36 36 36 36 36 35 35 36 36 36 36 36 36 36 36 36 35 35 34
39 40 40 40 41 41 41 41 42 41 41 40 39 39 39 39 39 38 37 36 35 35 34 34 34 34 33 33 33 34 34 34 34 34 34 34 34 34 34 33 33 33 32 31
Wind_Direction
291 290 289 289 289 288 286 286 286 288 287 286 284 284 282 279 278 277 277 276 277 278 278 276 275 275 274 273 273 273 273 272 270 269 268 267 266 266 266 266 266 265 264 263
291 292 291 290 289 289 288 287 286 286 286 286 284 283 281 281 280 279 279 278 278 279 278 278 277 277 275 275 274 274 273 272 271 269 268 268 267 267 267 266 266 265 264 263
292 291 291 291 292 291 290 289 288 287 287 284 283 282 281 281 281 280 280 280 280 280 279 279 279 278 276 275 274 274 273 272 271 270 269 269 268 268 267 266 266 266 265 264
294 294 292 295 294 292 291 290 289 289 287 286 284 282 281 281 281 281 281 281 282 281 281 281 279 278 277 276 275 274 273 272 271 271 271 270 270 270 269 268 267 266 265 264
295 295 296 296 296 295 293 292 290 290 289 286 284 282 281 282 282 282 282 282 282 281 282 281 280 279 277 276 275 275 274 273 272 272 272 272 272 272 271 270 268 266 265 265
294 294 296 298 296 295 293 292 291 290 289 288 286 284 283 282 283 284 284 283 282 282 282 281 280 279 278 277 276 275 275 274 273 273 274 274 274 273 272 271 270 268 267 267
293 293 295 296 296 295 294 294 292 291 290 290 289 288 286 286 286 285 285 284 284 283 282 281 281 280 279 278 277 277 276 275 274 273 274 274 274 274 273 272 271 269 268 268
293 293 294 295 293 293 294 293 292 291 291 291 290 290 289 288 288 287 286 285 285 284 283 282 281 281 280 279 278 277 277 276 275 274 274 274 274 275 275 274 272 271 270 269
292 293 293 292 291 292 293 292 292 292 292 292 291 290 289 288 288 287 286 286 286 285 284 283 282 281 280 279 279 279 277 277 275 275 275 274 274 275 275 275 274 273 271 270
292 293 292 291 290 291 292 292 292 291 291 291 291 290 289 288 288 288 288 288 287 286 285 284 283 282 281 280 280 279 278 277 275 274 274 274 275 275 276 276 275 274 273 271
294 294 293 292 291 291 291 291 290 290 290 290 290 289 289 289 290 290 290 290 289 288 286 286 285 284 283 282 281 279 278 277 275 274 274 274 275 276 276 276 276 276 275 274
296 295 294 292 291 291 291 291 291 290 289 289 290 290 290 290 291 291 291 290 290 289 289 288 288 286 285 284 282 280 278 277 275 275 275 275 276 277 277 277 277 278 277 276
294 294 293 293 291 291 292 292 291 290 289 290 291 291 291 291 291 291 291 291 291 291 290 290 290 288 287 286 284 282 280 278 277 276 276 276 276 277 277 278 278 278 278 278
294 294 293 293 293 293 294 294 292 291 290 291 291 292 292 292 291 291 291 291 292 292 291 290 290 289 288 287 286 284 281 279 278 278 278 278 278 278 278 278 279 278 278 278
294 294 294 293 293 294 294 293 292 291 291 291 291 292 292 292 291 291 291 291 291 291 290 290 290 290 290 289 287 285 283 280 279 279 279 279 279 279 279 279 279 279 278 278
295 294 294 294 295 295 295 294 292 291 291 291 292 292 292 292 292 291 291 291 291 291 290 290 290 290 291 290 288 286 284 282 281 280 280 280 280 280 280 280 280 280 279 278
297 296 296 297 297 297 296 294 293 293 292 292 293 293 293 293 293 292 292 292 291 291 290 290 290 290 290 290 289 287 285 284 283 282 281 281 281 281 281 282 281 280 279 278
299 299 299 300 300 299 298 297 296 295 294 294 294 294 294 294 294 294 294 294 293 292 291 291 291 291 290 289 289 288 287 285 284 283 282 282 282 282 282 282 282 281 280 279
301 301 301 301 300 300 299 299 298 298 297 297 296 296 296 296 296 296 295 294 294 293 293 293 292 292 292 291 290 289 287 286 285 284 282 282 282 282 282 282 281 281 280 280
303 303 302 302 301 301 300 300 300 300 300 299 299 298 298 297 297 297 296 296 295 294 294 293 293 293 292 292 291 289 287 286 284 284 283 283 283 283 283 282 282 281 281 280
304 304 303 302 302 301 301 301 301 301 301 301 301 300 300 299 298 297 297 296 296 295 295 294 293 293 292 292 291 290 288 286 285 284 283 283 283 283 283 283 282 281 281 280
304 304 304 303 303 303 303 302 302 302 302 302 302 302 301 300 300 299 298 297 296 295 294 293 293 292 292 291 291 290 288 286 285 284 283 283 282 282 282 282 282 281 280 279
305 305 304 304 304 303 303 303 304 304 303 303 303 302 302 302 301 300 299 298 296 295 295 294 293 292 291 291 290 289 288 286 285 284 283 283 282 282 282 282 282 281 280 280
305 306 305 305 305 305 304 305 304 304 304 303 303 303 303 302 302 301 300 299 297 297 296 295 293 292 291 291 290 289 288 286 285 284 283 283 282 282 282 282 281 280 280 279
305 305 305 306 306 307 307 307 307 306 306 305 305 304 304 304 303 303 301 300 299 298 297 296 294 294 293 292 292 291 289 288 286 285 284 284 283 283 283 282 282 281 280 280
305 306 306 307 307 308 309 309 309 309 308 308 307 306 306 306 306 305 303 302 301 300 299 298 297 296 296 295 294 293 292 290 288 287 286 285 285 284 284 283 283 282 281 281
306 306 307 308 308 309 309 310 310 310 309 309 308 307 307 308 308 307 306 304 303 302 301 300 299 298 298 298 297 296 295 294 292 290 289 287 286 285 284 284 283 282 282 281
Height
5578 5576 5573 5572 5570 5567 5564 5562 5560 5560 5558 5559 5556 5554 5552 5550 5548 5547 5547 5546 5544 5543 5541 5540 5539 5537 5536 5535 5534 5533 5533 5533 5532 5532 5532 5532 5532 5532 5531 5531 5531 5532 5533 5533
5570 5567 5564 5562 5560 5558 5556 5553 5551 5549 5549 5549 5546 5543 5542 5540 5538 5536 5535 5534 5532 5531 5529 5527 5526 5525 5523 5522 5521 5520 5519 5519 5518 5517 5517 5517 5517 5517 5516 5516 5516 5517 5517 5518
5560 5558 5554 5552 5552 5549 5547 5545 5542 5539 5540 5537 5535 5533 5531 5529 5527 5525 5524 5522 5520 5519 5517 5515 5513 5511 5510 5509 5507 5506 5505 5505 5504 5504 5503 5502 5502 5502 5501 5501 5501 5502 5502 5503
5550 5549 5544 5547 5543 5540 5537 5535 5532 5530 5528 5526 5524 5522 5520 5518 5516 5514 5512 5510 5508 5506 5504 5502 5500 5498 5497 5495 5494 5493 5492 5491 5490 5490 5489 5488 5488 5487 5487 5486 5486 5487 5487 5487
5541 5537 5536 5537 5534 5530 5527 5526 5523 5520 5517 5515 5512 5510 5509 5506 5504 5502 5500 5498 5496 5493 5491 5489 5487 5485 5483 5482 5481 5480 5478 5477 5477 5476 5476 5475 5474 5473 5472 5472 5471 5472 5472 5472
5532 5528 5526 5529 5525 5520 5517 5516 5514 5510 5507 5504 5501 5499 5499 5495 5492 5490 5487 5485 5483 5480 5478 5476 5474 5472 5470 5469 5467 5466 5465 5464 5463 5462 5461 5461 5460 5459 5458 5457 5456 5456 5456 5456
5524 5519 5517 5518 5514 5510 5508 5507 5503 5499 5496 5493 5490 5488 5486 5483 5480 5477 5475 5472 5470 5468 5465 5463 5461 5459 5457 5455 5454 5453 5451 5450 5449 5448 5447 5446 5445 5444 5443 5442 5441 5441 5441 5441
5515 5510 5511 5507 5503 5500 5497 5494 5491 5488 5485 5482 5479 5476 5474 5471 5468 5465 5463 5460 5457 5455 5452 5450 5447 5446 5444 5442 5440 5439 5437 5436 5434 5433 5433 5432 5431 5429 5428 5427 5426 5425 5425 5424
5506 5504 5500 5495 5492 5489 5486 5484 5480 5477 5475 5472 5468 5465 5462 5460 5456 5453 5451 5448 5445 5442 5440 5437 5434 5432 5430 5428 5426 5424 5422 5421 5420 5419 5418 5417 5416 5414 5413 5411 5410 5409 5408 5408
5495 5493 5489 5485 5481 5478 5475 5472 5469 5466 5463 5460 5457 5454 5451 5448 5445 5442 5438 5435 5432 5429 5427 5424 5421 5418 5416 5414 5412 5409 5407 5406 5404 5403 5402 5401 5400 5399 5398 5396 5394 5393 5392 5392
5484 5482 5478 5474 5471 5467 5464 5461 5458 5455 5452 5449 5445 5443 5439 5436 5433 5430 5426 5423 5420 5417 5414 5411 5408 5405 5402 5399 5397 5395 5393 5391 5389 5388 5387 5386 5385 5384 5382 5381 5379 5378 5377 5376
5473 5470 5466 5463 5460 5456 5453 5450 5447 5444 5440 5437 5434 5431 5428 5425 5421 5418 5415 5411 5408 5405 5401 5398 5394 5391 5388 5385 5382 5380 5378 5376 5374 5373 5372 5371 5370 5369 5366 5365 5364 5362 5361 5360
5462 5458 5455 5452 5448 5445 5442 5439 5435 5432 5429 5426 5423 5420 5416 5413 5410 5406 5403 5399 5396 5392 5388 5385 5381 5377 5374 5371 5368 5365 5363 5361 5360 5359 5358 5356 5355 5354 5352 5351 5348 5347 5345 5343
5451 5447 5444 5441 5438 5434 5431 5427 5424 5420 5417 5414 5411 5407 5404 5401 5397 5394 5390 5387 5383 5379 5375 5372 5368 5364 5361 5357 5354 5351 5349 5347 5346 5344 5343 5341 5340 5338 5337 5336 5334 5332 5329 5327
5440 5437 5433 5430 5426 5423 5419 5416 5412 5409 5406 5402 5399 5395 5392 5388 5385 5381 5378 5374 5370 5366 5362 5359 5355 5351 5348 5344 5341 5338 5336 5333 5332 5330 5328 5327 5325 5323 5322 5320 5318 5316 5315 5313
5429 5426 5422 5419 5415 5411 5408 5404 5401 5397 5394 5390 5387 5383 5380 5376 5372 5368 5364 5361 5357 5353 5349 5346 5342 5338 5335 5331 5328 5325 5322 5320 5318 5316 5314 5312 5310 5308 5307 5305 5303 5301 5300 5298
5419 5415 5411 5408 5404 5400 5396 5392 5388 5385 5381 5378 5375 5371 5367 5363 5359 5355 5352 5348 5344 5340 5336 5333 5329 5326 5322 5318 5315 5312 5309 5306 5304 5302 5300 5298 5296 5294 5292 5291 5289 5287 5285 5283
5408 5405 5401 5397 5393 5389 5385 5380 5377 5373 5369 5366 5362 5358 5355 5351 5347 5343 5339 5335 5331 5327 5323 5320 5316 5312 5309 5305 5302 5299 5296 5293 5290 5288 5286 5284 5282 5280 5279 5277 5275 5273 5271 5270
5398 5394 5390 5386 5382 5378 5373 5369 5366 5362 5358 5354 5350 5347 5343 5339 5335 5330 5326 5322 5318 5315 5311 5307 5303 5299 5295 5292 5289 5285 5282 5279 5277 5274 5272 5271 5269 5267 5265 5263 5262 5260 5258 5257
5388 5384 5379 5375 5371 5367 5363 5359 5355 5351 5347 5343 5339 5335 5331 5326 5322 5318 5314 5310 5305 5302 5298 5294 5290 5286 5282 5279 5275 5272 5269 5266 5263 5261 5259 5257 5256 5254 5252 5250 5248 5247 5245 5243
5378 5374 5369 5365 5361 5356 5352 5348 5344 5340 5336 5331 5327 5323 5318 5314 5310 5305 5301 5297 5292 5288 5285 5281 5277 5273 5269 5265 5262 5259 5255 5253 5250 5248 5246 5244 5242 5240 5238 5237 5235 5233 5232 5230
5368 5363 5359 5355 5351 5346 5341 5337 5333 5329 5324 5320 5315 5310 5306 5301 5297 5292 5288 5284 5279 5275 5271 5267 5263 5259 5255 5252 5249 5245 5242 5240 5237 5235 5233 5231 5229 5227 5225 5223 5222 5220 5218 5217
5358 5353 5349 5344 5340 5335 5331 5326 5322 5317 5312 5308 5303 5298 5293 5289 5284 5280 5275 5270 5265 5261 5257 5253 5249 5245 5242 5239 5236 5232 5229 5226 5224 5222 5219 5217 5215 5214 5212 5210 5208 5207 5205 5203
5347 5343 5338 5334 5329 5325 5320 5315 5310 5305 5300 5295 5290 5285 5281 5276 5271 5266 5261 5257 5252 5248 5244 5240 5236 5232 5229 5226 5222 5219 5216 5213 5211 5208 5206 5204 5202 5200 5199 5197 5195 5193 5192 5190
5337 5333 5328 5323 5319 5314 5309 5304 5299 5293 5288 5283 5278 5273 5268 5263 5259 5254 5249 5244 5240 5235 5232 5227 5224 5220 5216 5213 5210 5206 5203 5200 5198 5195 5193 5191 5189 5187 5185 5184 5182 5180 5179 5177
5327 5322 5317 5312 5308 5303 5298 5293 5287 5282 5277 5272 5267 5261 5256 5251 5247 5242 5237 5232 5228 5224 5220 5216 5212 5208 5205 5201 5198 5194 5191 5188 5185 5183 5181 5179 5177 5175 5173 5171 5169 5168 5166 5165
5316 5311 5307 5302 5297 5291 5287 5281 5276 5271 5266 5261 5256 5251 5245 5240 5235 5231 5226 5221 5217 5213 5209 5205 5201 5198 5194 5190 5187 5183 5180 5177 5174 5171 5169 5167 5165 5163 5161 5159 5158 5156 5155 5154